�������l�o���
Date,Time,MP-1(��Sv/h),MP-2(��Sv/h),MP-3(��Sv/h),MP-4(��Sv/h),MP-5(��Sv/h),MP-6(��Sv/h),MP-7(��Sv/h),MP-8(��Sv/h),����,����(m/s),���J
2023/11/03,00:00,0.528,0.798,0.495,1.004,0.724,0.320,0.572,0.532,��쓌,3.1,��
2023/11/03,00:10,0.527,0.798,0.495,1.005,0.722,0.319,0.571,0.532,��쓌,2.6,��
2023/11/03,00:20,0.526,0.798,0.496,1.003,0.725,0.318,0.573,0.531,��쓌,2.3,��
2023/11/03,00:30,0.526,0.799,0.495,1.002,0.725,0.319,0.572,0.534,��,1.9,��
2023/11/03,00:40,0.525,0.798,0.496,1.003,0.725,0.318,0.571,0.531,��쐼,1.5,��
2023/11/03,00:50,0.526,0.798,0.494,1.005,0.726,0.320,0.572,0.532,�쐼,3.8,��
2023/11/03,01:00,0.527,0.799,0.494,1.004,0.724,0.319,0.571,0.531,�쐼,4.4,��
2023/11/03,01:10,0.526,0.800,0.495,1.005,0.724,0.319,0.572,0.532,��쐼,4.5,��
2023/11/03,01:20,0.526,0.796,0.494,1.002,0.723,0.318,0.571,0.533,��쐼,4.4,��
2023/11/03,01:30,0.526,0.797,0.494,1.004,0.724,0.319,0.572,0.531,��쐼,4.0,��
2023/11/03,01:40,0.527,0.796,0.496,1.004,0.725,0.317,0.572,0.531,��쐼,3.5,��
2023/11/03,01:50,0.527,0.799,0.495,1.002,0.725,0.319,0.572,0.533,�쐼,3.4,��
2023/11/03,02:00,0.526,0.796,0.496,1.003,0.725,0.318,0.573,0.532,�쐼,3.6,��
2023/11/03,02:10,0.527,0.797,0.494,1.003,0.726,0.319,0.572,0.532,�쐼,3.8,��
2023/11/03,02:20,0.526,0.798,0.494,1.004,0.724,0.319,0.571,0.532,�쐼,4.3,��
2023/11/03,02:30,0.527,0.797,0.493,1.003,0.724,0.320,0.572,0.533,�쐼,3.8,��
2023/11/03,02:40,0.527,0.799,0.495,1.002,0.723,0.320,0.573,0.531,�쐼,3.9,��
2023/11/03,02:50,0.526,0.797,0.493,1.001,0.723,0.318,0.572,0.532,�쐼,3.1,��
2023/11/03,03:00,0.526,0.798,0.496,1.004,0.724,0.320,0.571,0.532,�쐼,3.7,��
2023/11/03,03:10,0.527,0.797,0.496,1.003,0.724,0.320,0.572,0.532,�쐼,2.9,��
2023/11/03,03:20,0.525,0.797,0.493,1.002,0.722,0.319,0.573,0.531,�쐼,2.8,��
2023/11/03,03:30,0.527,0.797,0.494,1.004,0.723,0.320,0.571,0.532,�쐼,2.2,��
2023/11/03,03:40,0.528,0.798,0.495,1.004,0.724,0.318,0.571,0.533,��쐼,2.6,��
2023/11/03,03:50,0.526,0.795,0.494,1.004,0.724,0.319,0.572,0.532,��,2.3,��
2023/11/03,04:00,0.526,0.797,0.495,1.002,0.724,0.319,0.572,0.532,��쓌,1.5,��
2023/11/03,04:10,0.527,0.798,0.495,1.003,0.725,0.319,0.572,0.532,�쓌,1.5,��
2023/11/03,04:20,0.526,0.798,0.494,1.004,0.727,0.319,0.570,0.532,�쓌,1.7,��
2023/11/03,04:30,0.527,0.798,0.494,1.001,0.724,0.317,0.573,0.532,���쓌,0.8,��
2023/11/03,04:40,0.526,0.797,0.493,1.002,0.725,0.320,0.569,0.532,-,CALM,��
2023/11/03,04:50,0.526,0.797,0.496,1.003,0.724,0.319,0.572,0.533,-,CALM,��
2023/11/03,05:00,0.527,0.798,0.495,1.002,0.725,0.319,0.570,0.532,���쐼,0.6,��
2023/11/03,05:10,0.528,0.797,0.495,1.001,0.724,0.319,0.572,0.531,�쐼,0.6,��
2023/11/03,05:20,0.527,0.795,0.493,1.003,0.725,0.320,0.571,0.532,�쐼,1.1,��
2023/11/03,05:30,0.527,0.796,0.494,1.002,0.723,0.318,0.573,0.531,�쐼,1.4,��
2023/11/03,05:40,0.525,0.798,0.494,1.002,0.723,0.318,0.572,0.532,��쐼,1.2,��
2023/11/03,05:50,0.526,0.797,0.492,1.004,0.724,0.319,0.571,0.530,��쐼,1.2,��
2023/11/03,06:00,0.524,0.797,0.493,1.005,0.725,0.319,0.571,0.532,��쐼,2.0,��
2023/11/03,06:10,0.527,0.796,0.494,1.003,0.723,0.319,0.571,0.530,��,2.0,��
2023/11/03,06:20,0.524,0.796,0.494,1.003,0.723,0.320,0.571,0.531,��쐼,2.3,��
2023/11/03,06:30,0.525,0.797,0.492,1.003,0.723,0.320,0.570,0.532,��,1.7,��
2023/11/03,06:40,0.526,0.798,0.493,1.001,0.723,0.318,0.571,0.533,��쐼,1.9,��
2023/11/03,06:50,0.525,0.797,0.492,1.002,0.723,0.318,0.570,0.532,��쐼,1.4,��
2023/11/03,07:00,0.527,0.795,0.495,1.001,0.723,0.318,0.571,0.533,��쓌,1.1,��
2023/11/03,07:10,0.526,0.796,0.493,1.003,0.723,0.318,0.571,0.533,��쐼,1.5,��
2023/11/03,07:20,0.525,0.797,0.494,1.003,0.722,0.318,0.572,0.532,��,1.2,��
2023/11/03,07:30,0.526,0.796,0.494,1.000,0.722,0.318,0.571,0.533,��,1.2,��
2023/11/03,07:40,0.526,0.799,0.495,1.002,0.723,0.318,0.572,0.531,��,0.6,��
2023/11/03,07:50,0.526,0.800,0.495,1.001,0.724,0.318,0.573,0.531,��,1.5,��
2023/11/03,08:00,0.527,0.798,0.495,1.003,0.725,0.318,0.572,0.531,��쐼,1.5,��
2023/11/03,08:10,0.526,0.797,0.494,1.004,0.725,0.320,0.574,0.532,��쐼,1.5,��
2023/11/03,08:20,0.528,0.796,0.493,1.005,0.722,0.318,0.572,0.532,��쐼,1.1,��
2023/11/03,08:30,0.528,0.798,0.495,1.003,0.727,0.318,0.572,0.532,��,1.2,��
2023/11/03,08:40,0.526,0.794,0.495,1.004,0.725,0.318,0.572,0.533,��,1.7,��
2023/11/03,08:50,0.527,0.795,0.496,1.007,0.723,0.320,0.571,0.533,��쓌,1.7,��
2023/11/03,09:00,0.525,0.795,0.494,1.001,0.727,0.320,0.573,0.533,��쓌,2.3,��
2023/11/03,09:10,0.525,0.796,0.494,1.005,0.724,0.320,0.572,0.531,��,2.6,��
2023/11/03,09:20,0.525,0.795,0.496,1.004,0.724,0.320,0.572,0.531,��,3.4,��
2023/11/03,09:30,0.526,0.796,0.496,1.003,0.725,0.320,0.572,0.532,��쓌,3.4,��
2023/11/03,09:40,0.525,0.796,0.495,1.005,0.725,0.318,0.573,0.531,��,3.7,��
2023/11/03,09:50,0.526,0.797,0.495,1.003,0.724,0.318,0.570,0.533,��,4.1,��
2023/11/03,10:00,0.527,0.796,0.496,1.002,0.724,0.319,0.572,0.533,��,3.7,��
2023/11/03,10:10,0.527,0.798,0.497,1.006,0.723,0.319,0.570,0.532,��,4.5,��
2023/11/03,10:20,0.528,0.798,0.493,1.006,0.726,0.319,0.571,0.534,��쓌,4.7,��
2023/11/03,10:30,0.527,0.798,0.495,1.005,0.725,0.317,0.571,0.532,��쓌,6.2,��
2023/11/03,10:40,0.527,0.797,0.495,1.004,0.724,0.319,0.572,0.531,��쓌,7.0,��
2023/11/03,10:50,0.528,0.799,0.494,1.004,0.726,0.317,0.573,0.531,��쓌,7.7,��
2023/11/03,11:00,0.528,0.798,0.494,1.003,0.726,0.318,0.573,0.533,��쓌,7.6,��
2023/11/03,11:10,0.528,0.798,0.496,1.007,0.726,0.319,0.572,0.533,��쓌,8.1,��
2023/11/03,11:20,0.528,0.798,0.496,1.004,0.726,0.319,0.572,0.531,��쓌,7.6,��
2023/11/03,11:30,0.527,0.797,0.494,1.004,0.725,0.320,0.573,0.531,��쓌,7.1,��
2023/11/03,11:40,0.528,0.800,0.495,1.006,0.727,0.319,0.572,0.532,��쓌,8.4,��
2023/11/03,11:50,0.528,0.799,0.497,1.007,0.725,0.317,0.574,0.532,��쓌,7.8,��
2023/11/03,12:00,0.528,0.800,0.496,1.005,0.728,0.320,0.573,0.531,��쓌,6.7,��
2023/11/03,12:10,0.528,0.800,0.496,1.007,0.728,0.319,0.573,0.531,��쓌,7.3,��
2023/11/03,12:20,0.528,0.799,0.496,1.008,0.725,0.318,0.573,0.530,��쓌,7.7,��
2023/11/03,12:30,0.528,0.800,0.495,1.006,0.726,0.319,0.572,0.531,��쓌,7.4,��
2023/11/03,12:40,0.529,0.800,0.498,1.005,0.727,0.318,0.572,0.531,��,7.9,��
2023/11/03,12:50,0.527,0.799,0.497,1.005,0.727,0.317,0.574,0.531,��쓌,8.9,��
2023/11/03,13:00,0.527,0.800,0.496,1.007,0.725,0.319,0.573,0.531,��쓌,7.2,��
2023/11/03,13:10,0.528,0.799,0.497,1.006,0.727,0.318,0.572,0.531,��쓌,8.9,��
2023/11/03,13:20,0.527,0.800,0.495,1.008,0.728,0.318,0.572,0.532,��,8.2,��
2023/11/03,13:30,0.527,0.799,0.496,1.007,0.729,0.319,0.574,0.531,��,8.3,��
2023/11/03,13:40,0.526,0.801,0.496,1.007,0.727,0.319,0.574,0.532,��,7.9,��
2023/11/03,13:50,0.528,0.802,0.498,1.006,0.728,0.320,0.573,0.531,��,8.1,��
2023/11/03,14:00,0.528,0.802,0.496,1.005,0.728,0.320,0.573,0.531,��,8.9,��
2023/11/03,14:10,0.528,0.798,0.495,1.007,0.730,0.320,0.574,0.531,��,8.5,��
2023/11/03,14:20,0.528,0.799,0.497,1.008,0.727,0.318,0.572,0.532,��,8.2,��
2023/11/03,14:30,0.528,0.799,0.497,1.007,0.728,0.319,0.574,0.531,��,9.1,��
2023/11/03,14:40,0.528,0.800,0.495,1.006,0.728,0.320,0.575,0.532,��,9.4,��
2023/11/03,14:50,0.527,0.799,0.496,1.007,0.728,0.319,0.573,0.531,��,9.9,��
2023/11/03,15:00,0.528,0.798,0.496,1.004,0.726,0.320,0.574,0.530,��,9.7,��
2023/11/03,15:10,0.528,0.800,0.495,1.007,0.725,0.319,0.573,0.531,��,9.0,��
2023/11/03,15:20,0.528,0.800,0.496,1.004,0.727,0.319,0.572,0.532,��,8.0,��
2023/11/03,15:30,0.528,0.799,0.495,1.003,0.728,0.319,0.573,0.531,��,7.4,��
2023/11/03,15:40,0.526,0.799,0.497,1.005,0.728,0.317,0.572,0.531,��,6.0,��
2023/11/03,15:50,0.528,0.801,0.496,1.002,0.726,0.319,0.573,0.531,��,6.0,��
2023/11/03,16:00,0.527,0.799,0.495,1.002,0.726,0.319,0.573,0.533,��,6.3,��
2023/11/03,16:10,0.527,0.800,0.495,1.004,0.726,0.319,0.574,0.531,��,6.5,��
2023/11/03,16:20,0.527,0.798,0.495,1.000,0.727,0.319,0.574,0.531,��,7.8,��
2023/11/03,16:30,0.528,0.802,0.495,1.005,0.724,0.322,0.574,0.533,��,8.5,��
2023/11/03,16:40,0.527,0.801,0.496,1.005,0.727,0.321,0.574,0.532,��,9.2,��
2023/11/03,16:50,0.528,0.801,0.496,1.007,0.727,0.320,0.574,0.534,��,8.1,��
2023/11/03,17:00,0.526,0.801,0.497,1.005,0.729,0.321,0.573,0.534,��,7.3,��
2023/11/03,17:10,0.528,0.801,0.497,1.005,0.730,0.321,0.574,0.533,��,6.8,��
2023/11/03,17:20,0.526,0.803,0.499,1.006,0.730,0.320,0.575,0.533,��,5.8,��
2023/11/03,17:30,0.527,0.801,0.499,1.007,0.731,0.319,0.573,0.533,��쐼,3.6,��
2023/11/03,17:40,0.527,0.802,0.498,1.006,0.730,0.320,0.574,0.532,��,3.9,��
2023/11/03,17:50,0.528,0.802,0.497,1.008,0.730,0.320,0.574,0.535,��,4.8,��
2023/11/03,18:00,0.528,0.802,0.498,1.007,0.729,0.320,0.575,0.533,��,4.6,��
2023/11/03,18:10,0.527,0.803,0.497,1.004,0.729,0.320,0.575,0.532,��,4.8,��
2023/11/03,18:20,0.530,0.800,0.498,1.008,0.731,0.320,0.574,0.533,��,4.6,��
2023/11/03,18:30,0.529,0.803,0.499,1.008,0.729,0.321,0.575,0.532,��,3.7,��
2023/11/03,18:40,0.529,0.803,0.498,1.006,0.729,0.321,0.574,0.532,��,3.5,��
2023/11/03,18:50,0.531,0.803,0.498,1.006,0.730,0.320,0.576,0.533,��,5.0,��
2023/11/03,19:00,0.530,0.803,0.496,1.006,0.729,0.319,0.576,0.532,��,5.5,��
2023/11/03,19:10,0.530,0.800,0.496,1.006,0.731,0.319,0.574,0.532,��,5.8,��
2023/11/03,19:20,0.530,0.802,0.498,1.008,0.729,0.320,0.575,0.532,��,5.3,��
2023/11/03,19:30,0.529,0.802,0.497,1.004,0.730,0.320,0.575,0.532,��,6.2,��
2023/11/03,19:40,0.530,0.802,0.496,1.006,0.729,0.319,0.573,0.533,��,6.1,��
2023/11/03,19:50,0.530,0.803,0.496,1.008,0.729,0.320,0.574,0.531,��,5.7,��
2023/11/03,20:00,0.529,0.803,0.497,1.005,0.729,0.320,0.574,0.533,��,6.4,��
2023/11/03,20:10,0.528,0.803,0.498,1.005,0.729,0.319,0.573,0.531,��,7.1,��
2023/11/03,20:20,0.530,0.803,0.496,1.007,0.730,0.320,0.574,0.533,��,6.6,��
2023/11/03,20:30,0.530,0.803,0.497,1.006,0.728,0.320,0.574,0.533,��,6.3,��
2023/11/03,20:40,0.530,0.801,0.498,1.007,0.729,0.320,0.573,0.533,��쐼,5.7,��
2023/11/03,20:50,0.531,0.803,0.498,1.007,0.728,0.320,0.573,0.533,��쐼,5.0,��
2023/11/03,21:00,0.529,0.801,0.498,1.009,0.729,0.319,0.573,0.532,��쐼,2.8,��
2023/11/03,21:10,0.527,0.804,0.497,1.007,0.729,0.320,0.572,0.532,��,1.5,��
2023/11/03,21:20,0.530,0.803,0.496,1.006,0.728,0.321,0.573,0.532,�k��,1.2,��
2023/11/03,21:30,0.527,0.803,0.496,1.006,0.729,0.319,0.571,0.532,-,CALM,��
2023/11/03,21:40,0.528,0.802,0.497,1.007,0.731,0.321,0.572,0.533,��쓌,1.4,��
2023/11/03,21:50,0.527,0.800,0.496,1.007,0.728,0.319,0.572,0.533,��,2.0,��
2023/11/03,22:00,0.530,0.801,0.497,1.007,0.729,0.320,0.573,0.532,�쐼,2.8,��
2023/11/03,22:10,0.528,0.801,0.496,1.004,0.728,0.320,0.573,0.532,���쐼,3.0,��
2023/11/03,22:20,0.528,0.801,0.496,1.006,0.729,0.320,0.572,0.531,���쐼,2.6,��
2023/11/03,22:30,0.529,0.801,0.496,1.008,0.729,0.320,0.572,0.531,�쐼,3.3,��
2023/11/03,22:40,0.530,0.799,0.497,1.007,0.731,0.319,0.571,0.532,�쐼,3.0,��
2023/11/03,22:50,0.530,0.800,0.497,1.005,0.727,0.321,0.574,0.532,�쐼,3.9,��
2023/11/03,23:00,0.530,0.801,0.495,1.007,0.728,0.320,0.572,0.531,��,2.6,��
2023/11/03,23:10,0.527,0.799,0.496,1.006,0.728,0.321,0.573,0.532,���k��,1.2,��
2023/11/03,23:20,0.529,0.800,0.496,1.007,0.727,0.320,0.573,0.532,-,CALM,��
2023/11/03,23:30,0.528,0.801,0.496,1.007,0.728,0.321,0.573,0.531,��,0.9,��
2023/11/03,23:40,0.528,0.801,0.497,1.005,0.731,0.320,0.573,0.531,��쐼,2.3,��
2023/11/03,23:50,0.527,0.802,0.495,1.006,0.730,0.319,0.572,0.532,��쐼,3.4,��
